Location: Poughquag
(41.6090°N, 73.6820°W)
Time: 19:00:54
(UTC-05:00)

Envisat - Visible Passes

Search period start: 18 November 2019 00:00
Search period end: 28 November 2019 00:00
Orbit: 764 x 766 km, 98.1° (Epoch: 18 November)

Date Brightness Start Highest point End Pass type
(mag) Time Alt. Az. Time Alt. Az. Time Alt. Az.
18 Nov 3.0 17:54:10 10° SSE 17:59:15 90° N 18:04:22 10° NNW visible
19 Nov 5.2 06:03:17 10° NE 06:07:46 31° E 06:12:13 10° SSE visible
19 Nov 3.4 17:17:52 10° SE 17:22:35 41° ENE 17:27:21 10° N visible
19 Nov 5.3 18:57:45 10° SW 19:01:45 23° W 19:05:48 10° NW visible
20 Nov 6.1 05:28:05 10° ENE 05:30:40 14° E 05:33:13 10° ESE visible
20 Nov 3.8 18:19:51 10° S 18:24:46 51° W 18:29:44 10° NNW visible
21 Nov 2.9 17:42:57 10° SSE 17:47:59 72° ENE 17:53:04 10° N visible
21 Nov 6.0 19:25:11 10° WSW 19:27:31 13° W 19:29:53 10° WNW visible
22 Nov 5.6 05:52:18 10° NE 05:56:25 24° E 06:00:31 10° SSE visible
22 Nov 3.6 17:06:54 10° SE 17:11:24 33° ENE 17:15:55 10° N visible
22 Nov 4.9 18:46:01 10° SSW 18:50:24 29° W 18:54:49 10° NW visible
23 Nov 6.5 05:18:13 10° ENE 05:19:15 11° E 05:20:15 10° E visible
23 Nov 3.4 18:08:27 10° S 18:13:28 66° WSW 18:18:32 10° NNW visible
24 Nov 4.5 06:17:14 10° NNE 06:22:05 42° E 06:26:52 10° S visible
24 Nov 3.0 17:31:48 10° SSE 17:36:45 57° ENE 17:41:44 10° N visible
24 Nov 5.7 19:12:54 10° SW 19:16:07 17° W 19:19:22 10° NW visible
25 Nov 5.9 05:41:25 10° NE 05:45:02 19° E 05:48:39 10° SE visible
25 Nov 3.9 16:56:02 10° ESE 17:00:13 27° ENE 17:04:25 10° N visible
25 Nov 4.5 18:34:23 10° SSW 18:39:03 37° W 18:43:46 10° NNW visible
26 Nov 3.0 17:57:07 10° SSE 18:02:12 83° WSW 18:07:18 10° NNW visible
27 Nov 5.0 06:06:09 10° NNE 06:10:44 34° E 06:15:19 10° SSE visible
27 Nov 3.3 17:20:43 10° SE 17:25:31 45° ENE 17:30:21 10° N visible
27 Nov 5.4 19:00:55 10° SW 19:04:44 21° W 19:08:35 10° NW visible
